Vertical_Velocity
-13 11 -2 10 -24 -9 8 -1 1 19 -10 14 2 -3 -6 -3 1 -5 4 2 0 4 -0 -1 1 -0 0 0 1 3 -1 -1 1 -2 -5 -1 -3 -1 -0 -2 -4 -4 -4 -6
-6 -28 -21 16 12 -0 7 8 11 -3 -7 4 -14 4 -0 -5 -3 -1 -2 -0 5 3 1 1 1 1 3 2 2 1 -0 -1 -2 -2 -2 -0 0 -1 -3 -6 -6 -3 -2 -3
48 -8 -3 -3 -3 0 -0 5 -4 4 -6 -15 13 5 -0 -2 -6 -1 1 3 4 -1 2 1 3 2 3 3 3 -0 -1 -0 -1 -2 -0 -0 -1 -2 2 -9 -7 -8 -5 3
-14 3 -2 3 2 8 12 13 -10 -17 1 -4 -16 -0 43 -3 2 -2 2 1 -1 -0 1 -0 -2 3 -1 1 -1 -0 -2 -2 -1 -0 -1 -4 -4 -1 -2 -0 -1 2 -2 -4
11 -0 2 5 18 -7 -20 20 -5 -4 -6 42 -3 10 15 -3 8 -6 -3 1 2 1 1 -3 -3 -0 -0 -3 -3 -2 -1 -1 -1 -3 -2 -3 -3 -2 -3 -2 -3 -4 -2 -1
-9 -9 -1 2 -7 -5 0 -0 -8 -7 6 6 -15 7 29 -6 13 3 -4 -2 1 1 -1 -0 -1 -1 -2 -2 -2 0 -2 -2 -3 -1 -1 -3 -1 2 -6 0 -3 -0 -2 -4
-2 7 -6 -3 -4 -1 -5 -0 4 12 13 -12 8 -2 -26 48 -18 8 -3 -0 -1 0 -0 -1 -1 -1 -1 -2 -2 -2 -2 -1 -4 -3 -2 -2 -2 0 -6 3 -1 -1 -3 -5
2 8 -10 -10 4 12 -14 18 7 2 2 -7 -14 -6 15 3 -6 0 -6 4 -1 -0 -0 -0 0 -0 -1 -2 -2 -1 -1 -3 -3 -2 -2 3 1 5 -2 -3 -1 -4 -4 -3
16 26 -13 -2 -6 -4 16 -14 2 5 -5 4 -10 -20 15 -11 -5 -1 -2 -0 1 0 -2 -0 0 0 -1 -0 -2 -0 -1 -5 -3 2 2 0 -0 6 -1 -1 -3 -2 -3 -2
-3 19 2 -9 -2 -8 -8 20 4 -4 2 -1 -1 1 10 -1 -1 0 1 -1 -0 0 -1 -1 -0 -3 -3 -1 -1 -0 -0 -2 0 -2 1 2 5 -3 -3 -3 -3 -2 -3 -3
6 -3 5 -1 -11 16 -7 -1 -9 3 6 3 0 4 -3 -9 -5 -1 4 3 1 1 4 4 -1 -2 1 -0 -3 2 1 -1 -1 -1 0 5 -8 -7 -2 -3 -3 -1 -2 -3
-1 3 1 -2 -4 -11 -6 15 5 3 2 -1 -0 -22 -9 -7 -7 -6 -3 1 -1 0 2 2 -3 -0 0 1 -0 0 -0 0 2 -2 4 -1 -5 -2 -3 -3 -2 -3 -3 -4
-9 -6 2 2 -3 -6 -6 -4 -6 9 -2 -2 3 -0 -2 -6 -3 -2 -2 0 -3 -3 -1 -0 -4 -1 1 -1 1 -1 3 0 0 1 2 -7 -4 -1 -2 -3 -2 -3 -4 -2
0 -3 -2 -8 12 7 -4 1 -1 -1 4 -8 -5 -4 17 1 -6 1 -1 -3 2 -1 5 2 -2 -1 2 1 2 1 2 1 1 1 -3 -2 2 -1 -2 -1 -3 -3 -3 -3
0 -5 5 2 -2 -2 -1 5 1 2 -6 11 -10 13 4 -3 0 5 2 -2 1 -3 -2 5 3 2 3 2 4 3 1 4 0 4 -1 1 -1 -1 -1 -0 -1 -3 -1 -1
-2 3 -2 -6 2 -1 -1 -1 -3 1 -5 3 4 -11 17 -10 -4 -2 -0 -1 0 2 2 -0 1 3 3 3 4 6 2 5 1 3 4 3 0 -1 1 1 0 -2 -3 -1
-0 -1 2 2 -2 1 -3 -11 -4 1 0 2 1 -6 2 -1 -2 -1 0 -2 -3 -1 -1 -1 2 5 2 2 4 1 2 3 2 1 3 7 -1 1 0 -1 -2 -1 -1 -3
1 3 0 0 -1 -2 0 -4 -1 -3 -0 4 0 -1 7 3 -2 -5 1 -2 -4 1 2 3 2 1 4 4 -3 4 6 0 8 5 2 -3 2 -1 -2 -1 -0 0 1 2
2 2 -1 -1 0 -4 -8 1 0 1 -5 4 -2 1 8 -4 -3 -7 4 -5 -0 -0 1 -0 -1 1 1 1 4 5 6 5 5 15 -0 9 4 -1 -1 2 1 1 -1 0
1 3 -0 -1 0 -1 2 -1 -0 -0 7 -4 -1 -1 1 -6 -7 0 -4 0 2 -2 -1 -2 0 -1 -1 2 3 8 3 8 11 -9 -1 -0 -2 5 1 2 2 0 2 -1
1 1 -3 2 -1 -5 1 -1 -1 4 11 -3 -1 1 -3 -4 4 -3 -0 1 2 2 3 0 1 4 4 3 8 3 9 19 9 7 -9 -3 0 -1 1 0 -0 3 3 5
1 0 -1 2 -1 -4 -2 -2 -2 -5 -1 -2 -1 -0 -4 -4 -1 0 -5 -2 -0 4 4 1 7 8 5 -3 1 9 9 -8 -13 16 -7 -7 -6 1 1 -1 -4 1 4 4
-1 -0 3 -2 14 -3 2 -1 0 -7 -4 -2 -2 -1 3 -0 0 1 1 -3 -2 4 0 -1 -3 2 2 3 7 6 7 11 7 -5 -3 -2 -2 -2 1 0 2 -10 0 -2
0 -0 -1 2 6 2 2 -3 -2 -0 -1 -2 0 1 -2 0 0 0 4 -6 3 0 -2 6 -6 9 1 1 24 5 -2 -1 -13 6 -2 -2 -3 1 -0 -0 -8 -3 2 3
-0 -2 2 -4 -10 7 -2 5 0 -0 1 -0 -2 -0 -2 -1 1 0 0 -0 0 -6 8 -1 3 4 7 13 8 5 -3 -10 -9 -8 -7 -4 -2 -4 -1 0 1 -1 5 -2
-3 11 -3 -2 8 -4 4 -3 -8 5 -4 1 0 1 -4 1 0 2 -1 -2 1 1 -2 -3 3 10 11 5 -0 -7 -14 -8 1 2 -2 -3 -2 -1 -3 -1 -5 9 5 -1
Height
3128 3130 3128 3129 3131 3132 3130 3129 3129 3133 3138 3139 3140 3142 3144 3146 3149 3151 3153 3154 3154 3155 3155 3156 3157 3158 3159 3159 3160 3160 3160 3161 3160 3160 3159 3157 3156 3155 3154 3153 3152 3150 3148 3146
3130 3131 3129 3130 3131 3131 3130 3129 3130 3136 3138 3139 3140 3141 3143 3144 3147 3149 3151 3152 3153 3153 3152 3153 3154 3155 3156 3156 3157 3157 3158 3158 3158 3157 3156 3156 3155 3153 3151 3150 3148 3146 3144 3140
3126 3128 3128 3129 3130 3131 3130 3129 3132 3133 3136 3137 3135 3137 3139 3140 3142 3144 3147 3149 3150 3148 3149 3150 3150 3151 3152 3152 3154 3155 3156 3156 3156 3155 3154 3153 3151 3148 3146 3144 3141 3138 3138 3134
3127 3127 3128 3128 3130 3130 3129 3131 3134 3134 3134 3131 3133 3128 3134 3138 3137 3139 3141 3143 3144 3144 3144 3145 3146 3146 3148 3149 3151 3152 3152 3152 3151 3150 3150 3148 3146 3144 3142 3140 3136 3134 3130 3126
3127 3126 3128 3128 3128 3129 3131 3133 3132 3133 3131 3127 3129 3128 3128 3139 3136 3134 3136 3138 3139 3140 3140 3141 3142 3143 3145 3147 3147 3147 3148 3147 3146 3146 3145 3143 3141 3140 3137 3136 3133 3128 3123 3119
3126 3125 3128 3128 3129 3130 3130 3132 3133 3133 3129 3126 3124 3126 3127 3130 3130 3130 3132 3133 3135 3136 3137 3138 3139 3141 3142 3143 3143 3143 3143 3143 3142 3141 3140 3138 3137 3134 3133 3128 3125 3120 3115 3111
3125 3126 3126 3128 3131 3131 3132 3132 3127 3126 3124 3125 3123 3123 3123 3125 3125 3128 3129 3129 3130 3132 3134 3134 3135 3137 3139 3139 3139 3139 3138 3137 3137 3135 3133 3131 3129 3128 3123 3122 3116 3111 3106 3103
3120 3124 3125 3126 3129 3129 3130 3130 3126 3124 3123 3120 3123 3123 3121 3122 3123 3126 3126 3127 3127 3128 3130 3131 3133 3134 3134 3134 3134 3134 3133 3132 3131 3129 3127 3125 3123 3120 3116 3112 3108 3103 3099 3094
3116 3119 3122 3124 3126 3130 3127 3129 3129 3127 3128 3128 3124 3120 3118 3118 3121 3123 3124 3124 3123 3124 3126 3128 3129 3130 3130 3130 3130 3129 3128 3126 3125 3124 3122 3119 3117 3115 3110 3104 3100 3095 3091 3085
3117 3118 3121 3121 3124 3125 3126 3127 3128 3128 3128 3125 3115 3115 3115 3117 3119 3120 3121 3121 3121 3122 3122 3124 3125 3125 3125 3125 3124 3123 3121 3120 3119 3118 3115 3112 3110 3106 3101 3096 3093 3088 3082 3076
3119 3120 3121 3121 3121 3121 3123 3124 3126 3125 3124 3122 3118 3115 3115 3117 3118 3118 3119 3120 3120 3119 3120 3120 3120 3120 3120 3119 3118 3117 3115 3113 3113 3111 3108 3106 3101 3097 3092 3089 3085 3080 3075 3069
3117 3117 3118 3119 3117 3118 3119 3120 3121 3123 3122 3123 3123 3119 3114 3115 3115 3115 3117 3118 3118 3118 3118 3117 3114 3115 3114 3113 3112 3111 3109 3107 3107 3104 3102 3097 3093 3089 3086 3082 3077 3072 3066 3061
3114 3115 3116 3116 3118 3116 3116 3118 3119 3120 3119 3119 3121 3117 3113 3112 3112 3112 3113 3114 3114 3114 3114 3112 3109 3109 3108 3107 3106 3104 3103 3101 3099 3097 3093 3089 3086 3082 3079 3074 3069 3063 3058 3052
3110 3111 3112 3112 3111 3111 3113 3114 3115 3116 3117 3116 3115 3114 3113 3110 3110 3110 3108 3110 3111 3110 3109 3107 3103 3103 3103 3101 3100 3098 3097 3095 3093 3090 3086 3081 3079 3076 3071 3066 3061 3055 3049 3042
3108 3108 3109 3109 3109 3109 3110 3111 3111 3111 3112 3112 3111 3110 3110 3110 3109 3108 3106 3105 3106 3104 3102 3100 3098 3097 3096 3094 3093 3091 3089 3088 3085 3082 3079 3075 3072 3068 3063 3058 3053 3046 3040 3035
3104 3105 3105 3105 3106 3106 3107 3107 3107 3107 3108 3108 3107 3107 3108 3105 3104 3102 3102 3099 3099 3098 3097 3095 3093 3091 3090 3088 3086 3084 3081 3080 3077 3074 3071 3068 3064 3060 3055 3051 3045 3038 3032 3027
3100 3101 3102 3103 3102 3103 3103 3100 3102 3103 3104 3105 3104 3105 3102 3100 3099 3098 3097 3094 3094 3092 3091 3090 3088 3086 3084 3081 3079 3077 3076 3073 3070 3065 3063 3059 3055 3052 3047 3042 3037 3031 3025 3019
3096 3098 3099 3100 3101 3103 3096 3096 3096 3097 3099 3100 3100 3100 3099 3097 3094 3093 3091 3090 3088 3087 3086 3085 3083 3081 3078 3075 3072 3072 3069 3065 3061 3057 3052 3049 3047 3044 3040 3034 3029 3024 3019 3014
3093 3095 3096 3097 3097 3096 3094 3093 3094 3094 3096 3094 3094 3095 3094 3091 3090 3090 3085 3085 3084 3082 3081 3079 3076 3074 3072 3070 3067 3066 3061 3057 3051 3049 3045 3044 3041 3037 3032 3028 3023 3017 3012 3009
3090 3091 3094 3094 3094 3093 3090 3089 3089 3090 3093 3089 3090 3089 3089 3087 3086 3088 3082 3080 3079 3077 3074 3072 3070 3068 3066 3062 3060 3058 3052 3047 3044 3039 3040 3038 3036 3031 3026 3021 3016 3010 3005 3000
3087 3088 3090 3091 3091 3089 3087 3086 3087 3090 3093 3086 3086 3085 3084 3083 3083 3079 3077 3075 3072 3070 3067 3065 3063 3061 3059 3054 3051 3047 3041 3037 3032 3030 3030 3030 3028 3025 3019 3015 3010 3004 2998 2993
3086 3086 3086 3087 3088 3087 3083 3084 3087 3086 3084 3083 3080 3080 3076 3075 3074 3072 3069 3067 3065 3063 3061 3057 3056 3052 3049 3044 3041 3032 3027 3025 3026 3025 3022 3023 3021 3017 3011 3005 3001 2997 2993 2988
3085 3084 3085 3086 3085 3082 3081 3081 3080 3079 3078 3077 3074 3073 3071 3069 3067 3065 3063 3058 3057 3055 3052 3049 3045 3043 3038 3034 3031 3024 3017 3018 3018 3019 3018 3016 3013 3009 3003 2997 2992 2989 2985 2981
3079 3079 3080 3080 3081 3079 3078 3076 3074 3073 3071 3070 3069 3067 3064 3062 3060 3057 3054 3050 3049 3045 3041 3038 3034 3033 3028 3025 3020 3017 3015 3014 3013 3014 3012 3010 3006 3001 2996 2991 2987 2982 2978 2974
3077 3076 3076 3075 3075 3075 3074 3072 3068 3068 3066 3064 3062 3060 3057 3056 3053 3050 3046 3042 3039 3035 3034 3029 3026 3022 3020 3016 3012 3011 3009 3008 3010 3009 3006 3002 2997 2993 2989 2985 2981 2977 2973 2969
3072 3073 3071 3071 3071 3069 3070 3065 3062 3061 3059 3057 3055 3054 3050 3048 3045 3041 3037 3034 3030 3028 3023 3021 3017 3013 3012 3011 3011 3008 3006 3006 3004 3001 2997 2994 2990 2986 2982 2978 2975 2971 2967 2963